Location: Sevilla
(37.3933°N, 5.9839°W)
Time: 13:07:35
(UTC+02:00)

S-56A Canister/Altair - Pass Details

Date: 29 June 2024
Orbit: 638 x 2488 km, 38.9° (Epoch: 14 July)

Event Time Altitude Azimuth Distance (km) Brightness Sun altitude
Rises 00:03:02 0° 276° (W) 4,055 11.8 -20.5°
Reaches altitude 10° 00:05:25 10° 277° (W) 3,296 11.3 -20.8°
Maximum altitude 00:14:04 84° 6° (N) 1,728 9.2 -21.7°
Drops below altitude 10° 00:27:07 10° 96° (E) 4,800 11.2 -23.1°
Sets 00:31:20 0° 97° (E) 5,973 11.7 -23.5°
